KX4BE Weather Reports


Display with metric or nautical units.
time (UTC)temp
F
wind
direction
speed
MPH
gust
MPH
rain 1hr
in
rain 24hr
in
rain mn
in
humidity
%
barometer
mb
20260831151331 88 101 2.0 6.0 0.00 0.00 0.00 69 1024.3
20260831150848 88 126 2.0 6.0 0.00 0.00 0.00 69 1024.3
20260831150344 88 200 2.0 4.0 0.00 0.00 0.00 69 1024.4
20260831145837 87 155 3.0 5.0 0.00 0.00 0.00 70 1024.4
20260831145332 87 157 3.0 5.0 0.00 0.00 0.00 71 1024.5
20260831144849 86 123 2.0 5.0 0.00 0.00 0.00 72 1024.4
20260831144349 86 186 3.0 5.0 0.00 0.00 0.00 71 1024.4
20260831143846 86 134 3.0 5.0 0.00 0.00 0.00 73 1024.4
20260831143341 85 94 2.0 5.0 0.00 0.00 0.00 74 1024.4
20260831142858 85 118 1.0 6.0 0.00 0.00 0.00 74 1024.4
20260831142335 85 148 2.0 6.0 0.00 0.00 0.00 74 1024.3
20260831141831 85 119 2.0 6.0 0.00 0.00 0.00 74 1024.3
20260831141329 85 142 4.0 6.0 0.00 0.00 0.00 74 1024.4
20260831140847 85 131 3.0 7.0 0.00 0.00 0.00 74 1024.4
20260831140342 85 167 2.0 6.0 0.00 0.00 0.00 75 1024.4
20260831135840 84 218 3.0 6.0 0.00 0.00 0.00 75 1024.3
20260831135343 84 77 1.0 4.0 0.00 0.00 0.00 76 1024.4
20260831134837 84 199 3.0 5.0 0.00 0.00 0.00 75 1024.3
20260831134336 84 160 1.0 4.0 0.00 0.00 0.00 76 1024.3
20260831133834 84 117 2.0 4.0 0.00 0.00 0.00 76 1024.3
20260831133349 84 120 2.0 6.0 0.00 0.00 0.00 76 1024.3
20260831132846 84 241 3.0 6.0 0.00 0.00 0.00 76 1024.2
20260831132406 83 166 1.0 6.0 0.00 0.00 0.00 77 1024.4
20260831131900 83 197 0.0 0.0 0.00 0.00 0.00 78 1024.1
20260831131336 83 197 0.0 0.0 0.00 0.00 0.00 78 1024.3
20260831130852 82 197 0.0 0.0 0.00 0.00 0.00 80 1024.3
20260831130348 82 211 0.0 0.0 0.00 0.00 0.00 81 1024.3
20260831125845 81 211 0.0 0.0 0.00 0.00 0.00 83 1024.1
20260831124832 79 211 0.0 0.0 0.00 0.00 0.00 85 1024.0
20260831124412 78 211 0.0 0.0 0.00 0.00 0.00 86 1024.0
20260831123847 77 211 0.0 0.0 0.00 0.00 0.00 88 1023.9
20260831123342 77 211 0.0 0.0 0.00 0.00 0.00 90 1023.9
20260831122859 76 211 0.0 0.0 0.00 0.00 0.00 90 1023.8
20260831122336 76 211 0.0 0.0 0.00 0.00 0.00 92 1023.8
20260831121834 75 211 0.0 0.0 0.00 0.00 0.00 93 1023.8
20260831121338 74 211 0.0 0.0 0.00 0.00 0.00 93 1023.8
20260831120834 74 211 0.0 0.0 0.00 0.00 0.00 94 1023.8
20260831120409 73 211 0.0 0.0 0.00 0.00 0.00 94 1023.7
20260831115844 73 211 0.0 0.0 0.00 0.00 0.00 95 1023.7
20260831115403 73 211 0.0 0.0 0.00 0.00 0.00 95 1023.6
20260831114841 72 211 0.0 0.0 0.00 0.00 0.00 95 1023.7
20260831114340 72 211 0.0 0.0 0.00 0.00 0.00 95 1023.5
20260831113859 72 211 0.0 0.0 0.00 0.00 0.00 94 1023.5
20260831113332 72 211 0.0 0.0 0.00 0.00 0.00 94 1023.5
20260831112848 72 211 0.0 0.0 0.00 0.00 0.00 94 1023.3
20260831112347 72 211 0.0 0.0 0.00 0.00 0.00 94 1023.4
20260831111844 72 211 0.0 0.0 0.00 0.00 0.00 94 1023.4
20260831111343 72 211 0.0 0.0 0.00 0.00 0.00 94 1023.3
20260831110840 72 211 0.0 0.0 0.00 0.00 0.00 94 1023.3
20260831110334 72 211 0.0 0.0 0.00 0.00 0.00 94 1023.1
20260831105830 72 211 0.0 0.0 0.00 0.00 0.00 94 1023.1
20260831105349 72 211 0.0 0.0 0.00 0.00 0.00 94 1023.0
20260831104906 72 211 0.0 0.0 0.00 0.00 0.00 94 1023.0
20260831104344 72 211 0.0 0.0 0.00 0.00 0.00 94 1023.0
20260831103842 72 211 0.0 0.0 0.00 0.00 0.00 94 1023.0
20260831103339 72 211 0.0 0.0 0.00 0.00 0.00 94 1022.9
20260831102832 72 211 0.0 0.0 0.00 0.00 0.00 94 1022.9
20260831102412 72 211 0.0 0.0 0.00 0.00 0.00 94 1022.8
20260831101847 73 211 0.0 0.0 0.00 0.00 0.00 93 1023.0
20260831101346 73 211 0.0 1.0 0.00 0.00 0.00 93 1023.0
20260831100904 73 211 0.0 1.0 0.00 0.00 0.00 93 1022.8
20260831100338 73 211 0.0 1.0 0.00 0.00 0.00 93 1022.6
20260831095833 73 211 0.0 1.0 0.00 0.00 0.00 93 1022.5
20260831095330 73 211 0.0 1.0 0.00 0.00 0.00 93 1022.5
20260831094848 73 211 0.0 0.0 0.00 0.00 0.00 93 1022.4
20260831094406 73 211 0.0 0.0 0.00 0.00 0.00 93 1022.3
20260831093843 73 211 0.0 0.0 0.00 0.00 0.00 93 1022.3
20260831093358 73 211 0.0 0.0 0.00 0.00 0.00 92 1022.3
20260831092852 74 211 0.0 0.0 0.00 0.00 0.00 92 1022.2
20260831092410 74 211 0.0 1.0 0.00 0.00 0.00 92 1022.3
20260831091904 74 211 0.0 1.0 0.00 0.00 0.00 92 1022.2
20260831091342 74 211 0.0 0.0 0.00 0.00 0.00 92 1022.2
20260831090840 74 211 0.0 1.0 0.00 0.00 0.00 92 1022.2
20260831090335 74 211 0.0 1.0 0.00 0.00 0.00 92 1022.2
20260831085831 74 211 0.0 0.0 0.00 0.00 0.00 91 1022.1
20260831085330 74 211 0.0 0.0 0.00 0.00 0.00 91 1022.1
20260831084843 74 211 0.0 0.0 0.00 0.00 0.00 91 1022.1
20260831084343 74 211 0.0 0.0 0.00 0.00 0.00 90 1022.1
20260831083840 74 211 0.0 1.0 0.00 0.00 0.00 90 1022.0
20260831083339 74 211 0.0 1.0 0.00 0.00 0.00 90 1022.0
20260831082837 75 211 0.0 2.0 0.00 0.00 0.00 90 1022.0
20260831082336 75 211 0.0 2.0 0.00 0.00 0.00 89 1022.0
20260831081853 75 211 0.0 1.0 0.00 0.00 0.00 89 1022.1
20260831081409 75 70 0.0 0.0 0.00 0.00 0.00 89 1022.1
20260831080846 75 70 0.0 0.0 0.00 0.00 0.00 89 1022.2
20260831080341 75 70 0.0 0.0 0.00 0.00 0.00 88 1022.1
20260831075900 75 70 0.0 0.0 0.00 0.00 0.00 88 1022.1
20260831075338 75 70 0.0 0.0 0.00 0.00 0.00 88 1022.1
20260831074836 75 70 0.0 0.0 0.00 0.00 0.00 88 1022.0
20260831074355 76 70 0.0 0.0 0.00 0.00 0.00 88 1022.0
20260831073909 76 70 0.0 0.0 0.00 0.00 0.00 87 1021.9
20260831073403 76 70 0.0 0.0 0.00 0.00 0.00 88 1022.0
20260831072859 76 70 0.0 0.0 0.00 0.00 0.00 87 1022.0
20260831072338 76 70 0.0 0.0 0.00 0.00 0.00 87 1021.9
20260831071836 76 70 0.0 0.0 0.00 0.00 0.00 87 1022.0
20260831071334 76 70 0.0 1.0 0.00 0.00 0.00 88 1022.0
20260831070849 76 70 0.0 0.0 0.00 0.00 0.00 88 1022.1
20260831070402 76 70 0.0 0.0 0.00 0.00 0.00 88 1022.1
20260831065837 76 70 0.0 0.0 0.00 0.00 0.00 88 1022.2
20260831065336 76 70 0.0 0.0 0.00 0.00 0.00 88 1022.3
20260831064852 76 70 0.0 0.0 0.00 0.00 0.00 87 1022.2
20260831064410 76 70 0.0 0.0 0.00 0.00 0.00 88 1022.3
20260831063846 76 70 0.0 0.0 0.00 0.00 0.00 88 1022.2
20260831063341 76 70 0.0 0.0 0.00 0.00 0.00 88 1022.3
20260831062838 76 70 0.0 0.0 0.00 0.00 0.00 88 1022.2
20260831062337 76 70 0.0 0.0 0.00 0.00 0.00 88 1022.2
20260831061836 76 70 0.0 0.0 0.00 0.00 0.00 88 1022.1
20260831061338 76 70 0.0 0.0 0.00 0.00 0.00 88 1022.2
20260831060836 76 70 0.0 0.0 0.00 0.00 0.00 88 1022.3
20260831060353 76 70 0.0 0.0 0.00 0.00 0.00 88 1022.3
20260831055847 76 70 0.0 0.0 0.00 0.00 0.00 88 1022.3
20260831055345 76 70 0.0 0.0 0.00 0.00 0.00 88 1022.3
20260831054842 76 70 0.0 1.0 0.00 0.00 0.00 88 1022.3
20260831054341 76 70 0.0 1.0 0.00 0.00 0.00 87 1022.3
20260831053839 76 70 0.0 2.0 0.00 0.00 0.00 87 1022.3
20260831053335 76 70 0.0 3.0 0.00 0.00 0.00 87 1022.2
20260831052832 76 70 0.0 0.0 0.00 0.00 0.00 87 1022.3
20260831052349 76 70 0.0 0.0 0.00 0.00 0.00 87 1022.2
20260831051847 76 70 0.0 0.0 0.00 0.00 0.00 87 1022.3
20260831051347 76 70 0.0 0.0 0.00 0.00 0.00 87 1022.2
20260831050907 76 70 0.0 0.0 0.00 0.00 0.00 87 1022.3
20260831050342 76 70 0.0 0.0 0.00 0.00 0.00 87 1022.3
20260831045840 77 70 0.0 0.0 0.00 0.00 0.00 87 1022.3
20260831045340 77 70 0.0 0.0 0.00 0.00 0.00 87 1022.2
20260831044838 77 70 0.0 0.0 0.00 0.00 0.00 87 1022.3
20260831044338 77 70 0.0 0.0 0.00 0.00 0.00 87 1022.4
20260831043836 77 70 0.0 0.0 0.00 0.00 0.00 87 1022.4
20260831043331 77 70 0.0 0.0 0.00 0.00 0.00 87 1022.4
20260831042849 77 70 0.0 0.0 0.00 0.00 0.00 86 1022.3
20260831042408 77 70 0.0 0.0 0.00 0.00 0.00 86 1022.3
20260831041901 77 70 0.0 0.0 0.00 0.00 0.00 86 1022.3
20260831041339 77 70 0.0 0.0 0.00 0.00 0.00 85 1022.3
20260831040856 77 70 0.0 0.0 0.00 0.00 0.00 86 1022.3
20260831040330 78 70 0.0 0.0 0.00 0.00 0.00 85 1022.3
20260831035847 78 70 0.0 0.0 0.00 0.00 0.00 85 1022.3
20260831035346 78 70 0.0 0.0 0.00 0.00 0.00 85 1022.3
20260831034843 78 70 0.0 0.0 0.00 0.00 0.00 85 1022.4
20260831034341 78 70 0.0 0.0 0.00 0.00 0.00 85 1022.4
20260831033839 78 70 0.0 0.0 0.00 0.00 0.00 84 1022.4
20260831033334 78 70 0.0 0.0 0.00 0.00 0.00 84 1022.3
20260831032832 78 70 0.0 0.0 0.00 0.00 0.00 82 1022.4
20260831032331 78 70 0.0 0.0 0.00 0.00 0.00 82 1022.4
20260831031831 79 70 0.0 0.0 0.00 0.00 0.00 82 1022.4
20260831031350 79 70 0.0 0.0 0.00 0.00 0.00 81 1022.3
20260831030904 79 70 0.0 0.0 0.00 0.00 0.00 81 1022.3
20260831030337 79 70 0.0 0.0 0.00 0.00 0.00 81 1022.3
20260831025834 79 70 0.0 0.0 0.00 0.00 0.00 81 1022.4
20260831025332 79 70 0.0 0.0 0.00 0.00 0.00 81 1022.4
20260831024909 79 70 0.0 0.0 0.00 0.00 0.00 81 1022.5
20260831024346 79 70 0.0 0.0 0.00 0.00 0.00 81 1022.4
20260831023841 79 70 0.0 0.0 0.00 0.00 0.00 80 1022.3
20260831023357 80 70 0.0 0.0 0.00 0.00 0.00 80 1022.5
20260831022832 80 70 0.0 0.0 0.00 0.00 0.00 80 1022.4
20260831022330 80 70 0.0 0.0 0.00 0.00 0.00 79 1022.4
20260831021846 80 70 0.0 0.0 0.00 0.00 0.00 79 1022.3
20260831021345 80 70 0.0 0.0 0.00 0.00 0.00 79 1022.3
20260831020842 80 70 0.0 0.0 0.00 0.00 0.00 79 1022.3
20260831020335 80 70 0.0 0.0 0.00 0.00 0.00 79 1022.2
20260831015853 80 70 0.0 1.0 0.00 0.00 0.00 79 1022.0
20260831015351 81 70 0.0 1.0 0.00 0.00 0.00 79 1022.0
20260831014909 81 70 0.0 0.0 0.00 0.00 0.00 78 1021.9
20260831014346 81 70 0.0 1.0 0.00 0.00 0.00 78 1022.0
20260831013844 81 70 1.0 1.0 0.00 0.00 0.00 78 1021.9
20260831013339 81 70 1.0 2.0 0.00 0.00 0.00 77 1021.8
20260831012834 81 70 327.0 327.0 0.00 0.00 0.00 77 1021.2
20260831012356 82 70 1.0 1.0 0.00 0.00 0.00 77 1021.6
20260831011852 82 70 1.0 1.0 0.00 0.00 0.00 76 1021.6
20260831011334 82 70 1.0 1.0 0.00 0.00 0.00 76 1021.6
20260831010904 82 70 1.0 1.0 0.00 0.00 0.00 75 1021.6
20260831010359 83 70 1.0 1.0 0.00 0.00 0.00 75 1021.4
20260831005836 83 70 0.0 1.0 0.00 0.00 0.00 74 1021.4
20260831005335 83 70 0.0 2.0 0.00 0.00 0.00 73 1021.4
20260831004833 84 70 1.0 3.0 0.00 0.00 0.00 73 1021.4
20260831004332 84 70 1.0 3.0 0.00 0.00 0.00 72 1021.3
20260831003850 84 70 0.0 2.0 0.00 0.00 0.00 72 1021.3
20260831003345 84 70 0.0 2.0 0.00 0.00 0.00 72 1021.2
20260831002841 84 70 0.0 2.0 0.00 0.00 0.00 71 1021.3
20260831002338 84 70 0.0 1.0 0.00 0.00 0.00 71 1021.2
20260831001836 84 70 0.0 1.0 0.00 0.00 0.00 71 1021.1
20260831001336 85 70 0.0 2.0 0.00 0.00 0.00 70 1021.1
20260831000912 85 70 0.0 3.0 0.00 0.00 0.00 70 1021.1
20260831000347 85 71 0.0 3.0 0.00 0.00 0.00 69 1021.1
20260830235843 85 69 1.0 3.0 0.00 0.00 0.00 68 1021.1
20260830235341 85 81 0.0 0.0 0.00 0.00 0.00 68 1021.1
20260830234837 85 81 0.0 0.0 0.00 0.00 0.00 68 1021.2
20260830234356 85 81 0.0 1.0 0.00 0.00 0.00 68 1021.1
20260830233852 86 81 0.0 3.0 0.00 0.00 0.00 67 1021.2
20260830233331 86 81 0.0 3.0 0.00 0.00 0.00 66 1021.2
20260830232848 86 81 0.0 1.0 0.00 0.00 0.00 66 1021.1
20260830232407 86 81 0.0 1.0 0.00 0.00 0.00 66 1021.2
20260830231842 86 81 0.0 2.0 0.00 0.00 0.00 65 1021.1
20260830231400 87 81 0.0 2.0 0.00 0.00 0.00 65 1021.1
20260830230834 87 81 0.0 2.0 0.00 0.00 0.00 63 1021.1
20260830230349 87 81 1.0 2.0 0.00 0.00 0.00 63 1021.1
20260830225905 87 81 0.0 1.0 0.00 0.00 0.00 64 1021.2
20260830225343 87 81 0.0 1.0 0.00 0.00 0.00 63 1021.1
20260830224840 87 81 0.0 1.0 0.00 0.00 0.00 64 1021.1
20260830224336 87 81 0.0 1.0 0.00 0.00 0.00 64 1021.0
20260830223834 88 81 1.0 2.0 0.00 0.00 0.00 62 1021.1
20260830223409 88 81 1.0 2.0 0.00 0.00 0.00 62 1021.1
20260830222845 88 81 0.0 2.0 0.00 0.00 0.00 61 1021.1
20260830222343 88 81 0.0 3.0 0.00 0.00 0.00 61 1021.1
20260830221840 89 81 1.0 3.0 0.00 0.00 0.00 61 1021.1
20260830221338 89 81 1.0 2.0 0.00 0.00 0.00 60 1021.1
20260830220916 89 81 0.0 3.0 0.00 0.00 0.00 60 1021.1
20260830220348 90 81 2.0 4.0 0.00 0.00 0.00 58 1021.1
20260830215845 90 55 1.0 4.0 0.00 0.00 0.00 59 1021.2
20260830215406 90 98 1.0 3.0 0.00 0.00 0.00 59 1021.2
20260830214841 90 98 2.0 4.0 0.00 0.00 0.00 58 1021.2
20260830214341 90 138 1.0 6.0 0.00 0.00 0.00 58 1021.2
20260830213837 90 121 1.0 4.0 0.00 0.00 0.00 60 1021.3
20260830213336 91 150 0.0 2.0 0.00 0.00 0.00 57 1021.2
20260830212833 92 150 1.0 2.0 0.00 0.00 0.00 58 1021.2
20260830212332 92 150 1.0 3.0 0.00 0.00 0.00 56 1021.2
20260830211848 92 150 0.0 3.0 0.00 0.00 0.00 57 1021.2
20260830211347 93 150 2.0 6.0 0.00 0.00 0.00 55 1021.3
20260830210844 93 111 3.0 6.0 0.00 0.00 0.00 56 1021.3
20260830210339 93 113 3.0 6.0 0.00 0.00 0.00 54 1021.3
20260830205836 93 120 3.0 6.0 0.00 0.00 0.00 53 1021.3
20260830205355 93 121 3.0 5.0 0.00 0.00 0.00 55 1021.2
20260830204831 92 163 1.0 5.0 0.00 0.00 0.00 55 1021.2
20260830204331 92 157 3.0 6.0 0.00 0.00 0.00 55 1021.4
20260830203848 92 5 2.0 4.0 0.00 0.00 0.00 55 1021.4
20260830203404 93 164 2.0 5.0 0.00 0.00 0.00 54 1021.5
20260830202839 94 164 2.0 8.0 0.00 0.00 0.00 54 1021.7
20260830202338 94 167 2.0 8.0 0.00 0.00 0.00 54 1021.6
20260830201854 94 133 4.0 9.0 0.00 0.00 0.00 54 1021.7
20260830201331 93 106 5.0 9.0 0.00 0.00 0.00 55 1021.6
20260830200848 93 209 4.0 7.0 0.00 0.00 0.00 54 1021.7
20260830200344 94 232 2.0 4.0 0.00 0.00 0.00 54 1021.9
20260830195844 94 122 2.0 9.0 0.00 0.00 0.00 52 1021.8
20260830195342 94 117 2.0 9.0 0.00 0.00 0.00 53 1022.0
20260830194840 94 140 4.0 9.0 0.00 0.00 0.00 53 1022.1
20260830194339 94 117 5.0 8.0 0.00 0.00 0.00 53 1022.1
20260830193833 93 189 3.0 7.0 0.00 0.00 0.00 55 1022.1
20260830193348 93 141 3.0 8.0 0.00 0.00 0.00 55 1022.1
20260830192845 92 210 2.0 5.0 0.00 0.00 0.00 57 1022.2
20260830192341 91 196 2.0 5.0 0.00 0.00 0.00 59 1022.4
20260830191838 91 80 3.0 8.0 0.00 0.00 0.00 60 1022.4
20260830191337 91 132 5.0 8.0 0.00 0.00 0.00 58 1022.5
20260830190834 92 62 1.0 4.0 0.00 0.00 0.00 58 1022.6
20260830190348 92 61 2.0 5.0 0.00 0.00 0.00 58 1022.8
20260830185908 92 238 1.0 9.0 0.00 0.00 0.00 59 1022.7
20260830185404 92 210 4.0 10.0 0.00 0.00 0.00 59 1023.0
20260830184838 91 161 2.0 10.0 0.00 0.00 0.00 59 1022.9
20260830184337 91 108 2.0 8.0 0.00 0.00 0.00 61 1023.0
20260830183835 91 189 1.0 8.0 0.00 0.00 0.00 61 1023.1
20260830183334 91 88 5.0 8.0 0.00 0.00 0.00 62 1023.0
20260830182832 90 231 1.0 8.0 0.00 0.00 0.00 62 1023.2
20260830182331 90 140 4.0 10.0 0.00 0.00 0.00 62 1023.3
20260830181846 90 186 6.0 10.0 0.00 0.00 0.00 64 1023.4
20260830181346 89 104 2.0 6.0 0.00 0.00 0.00 63 1023.5
20260830180844 89 180 3.0 5.0 0.00 0.00 0.00 64 1023.5
20260830180339 89 135 2.0 8.0 0.00 0.00 0.00 64 1023.5
20260830175836 89 86 3.0 8.0 0.00 0.00 0.00 64 1023.6
20260830175336 89 107 4.0 7.0 0.00 0.00 0.00 64 1023.7
20260830174834 89 205 3.0 9.0 0.00 0.00 0.00 64 1023.7
20260830174410 89 152 5.0 9.0 0.00 0.00 0.00 65 1023.8
20260830173845 89 296 2.0 9.0 0.00 0.00 0.00 64 1023.9
20260830173341 89 111 6.0 9.0 0.00 0.00 0.00 66 1023.9
20260830172837 88 176 1.0 7.0 0.00 0.00 0.00 68 1024.0
20260830172336 88 105 1.0 8.0 0.00 0.00 0.00 68 1023.9
20260830171833 88 165 3.0 8.0 0.00 0.00 0.00 68 1024.1
20260830171336 88 190 1.0 4.0 0.00 0.00 0.00 66 1024.3
20260830170908 88 190 1.0 6.0 0.00 0.00 0.00 66 1024.5
20260830170346 89 96 1.0 7.0 0.00 0.00 0.00 66 1024.5
20260830165843 89 244 2.0 9.0 0.00 0.00 0.00 66 1024.5
20260830165342 88 123 4.0 9.0 0.00 0.00 0.00 68 1024.6
20260830164838 88 145 3.0 10.0 0.00 0.00 0.00 69 1024.7
20260830164337 88 141 4.0 10.0 0.00 0.00 0.00 68 1024.6
20260830163837 87 129 4.0 9.0 0.00 0.00 0.00 69 1024.8
20260830163350 87 94 4.0 9.0 0.00 0.00 0.00 70 1024.8
20260830162848 87 205 4.0 10.0 0.00 0.00 0.00 70 1024.8
20260830162347 86 174 5.0 10.0 0.00 0.00 0.00 73 1024.9
20260830161845 86 94 3.0 8.0 0.00 0.00 0.00 74 1024.8
20260830161345 85 74 4.0 8.0 0.00 0.00 0.00 74 1025.0
20260830160842 85 107 4.0 7.0 0.00 0.00 0.00 75 1024.9
20260830160337 84 202 3.0 6.0 0.00 0.00 0.00 74 1024.9
20260830155852 84 94 2.0 6.0 0.00 0.00 0.00 77 1024.8
20260830155410 84 173 3.0 8.0 0.00 0.00 0.00 76 1024.9
20260830154908 84 207 4.0 8.0 0.00 0.00 0.00 76 1024.9
20260830154346 83 117 2.0 5.0 0.00 0.00 0.00 79 1024.9
20260830153841 83 148 2.0 5.0 0.00 0.00 0.00 80 1025.1
20260830153341 83 223 1.0 4.0 0.00 0.00 0.00 80 1025.1
20260830152854 82 121 2.0 6.0 0.00 0.00 0.00 80 1025.0
20260830152332 82 185 2.0 6.0 0.00 0.00 0.00 80 1025.2
20260830151831 82 204 3.0 6.0 0.00 0.00 0.00 80 1025.2
20260830151410 83 180 2.0 6.0 0.00 0.00 0.00 80 1025.1